Hourly Weather Runivshchyna

Today, 18 April, Sunday

Time Temperature Precipitation Wind Pressure Humidity
00:00 +8°C° 0 mm 1 mps 754 mmHg 82%
01:00 +7°C° 0 mm 2 mps 753 mmHg 82%
02:00 +6°C° 0 mm 2 mps 753 mmHg 84%
03:00 +6°C° 0 mm 2 mps 753 mmHg 85%
04:00 +7°C° 0 mm 1 mps 753 mmHg 85%
05:00 +7°C° 0 mm 1 mps 753 mmHg 86%
06:00 +8°C° 0 mm 1 mps 753 mmHg 82%
07:00 +8°C° 0 mm 2 mps 753 mmHg 77%
08:00 +8°C° 0 mm 2 mps 753 mmHg 73%
09:00 +9°C° 0 mm 2 mps 753 mmHg 68%
10:00 +10°C° 0 mm 3 mps 753 mmHg 63%
11:00 +11°C° 0 mm 3 mps 753 mmHg 57%
12:00 +11°C° 0 mm 3 mps 752 mmHg 56%
13:00 +12°C° 0 mm 3 mps 752 mmHg 55%
14:00 +12°C° 0 mm 4 mps 752 mmHg 54%
15:00 +11°C° 0 mm 3 mps 752 mmHg 56%
16:00 +11°C° 0 mm 3 mps 752 mmHg 58%
17:00 +12°C° 0 mm 2 mps 752 mmHg 60%
18:00 +10°C° 0 mm 2 mps 752 mmHg 66%
19:00 +9°C° 0 mm 3 mps 752 mmHg 73%
20:00 +8°C° 0 mm 3 mps 752 mmHg 80%
21:00 +7°C° 0 mm 2 mps 753 mmHg 84%
22:00 +6°C° 0 mm 2 mps 753 mmHg 88%
23:00 +5°C° 0 mm 2 mps 753 mmHg 92%

Tomorrow, 19 April, Monday

Time Temperature Precipitation Wind Pressure Humidity
00:00 +5°C° 0 mm 2 mps 753 mmHg 92%
01:00 +4°C° 0 mm 2 mps 753 mmHg 93%
02:00 +4°C° 0 mm 2 mps 753 mmHg 93%
03:00 +4°C° 0 mm 2 mps 752 mmHg 93%
04:00 +4°C° 0 mm 2 mps 752 mmHg 93%
05:00 +4°C° 0 mm 2 mps 752 mmHg 92%
06:00 +5°C° 0 mm 2 mps 752 mmHg 85%
07:00 +7°C° 0 mm 2 mps 752 mmHg 78%
08:00 +8°C° 0 mm 2 mps 753 mmHg 71%
09:00 +9°C° 0 mm 2 mps 752 mmHg 65%
10:00 +10°C° 0 mm 2 mps 752 mmHg 60%
11:00 +13°C° 0 mm 2 mps 752 mmHg 54%
12:00 +13°C° 0 mm 2 mps 751 mmHg 50%
13:00 +14°C° 0 mm 2 mps 751 mmHg 47%
14:00 +15°C° 0 mm 1 mps 751 mmHg 43%
15:00 +15°C° 0 mm 2 mps 751 mmHg 44%
16:00 +15°C° 0 mm 2 mps 751 mmHg 44%
17:00 +14°C° 0 mm 3 mps 750 mmHg 45%
18:00 +12°C° 0 mm 3 mps 750 mmHg 50%
19:00 +11°C° 0 mm 3 mps 750 mmHg 56%
20:00 +10°C° 0 mm 3 mps 750 mmHg 61%
21:00 +10°C° 0 mm 3 mps 750 mmHg 63%
22:00 +9°C° 0 mm 3 mps 750 mmHg 65%
23:00 +9°C° 0 mm 3 mps 749 mmHg 67%

Day after tomorrow, 20 April, Tuesday

Time Temperature Precipitation Wind Pressure Humidity
00:00 +8°C° 0 mm 3 mps 749 mmHg 69%
01:00 +7°C° 0 mm 4 mps 748 mmHg 71%
02:00 +7°C° 0 mm 4 mps 748 mmHg 74%
03:00 +7°C° 0 mm 4 mps 747 mmHg 74%
04:00 +7°C° 0 mm 4 mps 747 mmHg 74%
05:00 +7°C° 0 mm 5 mps 746 mmHg 74%
06:00 +7°C° 0.3 mm 5 mps 745 mmHg 76%
07:00 +7°C° 0.3 mm 6 mps 745 mmHg 78%
08:00 +8°C° 0.3 mm 6 mps 744 mmHg 81%
09:00 +8°C° 1.2 mm 7 mps 743 mmHg 84%
10:00 +8°C° 1.2 mm 7 mps 742 mmHg 87%
11:00 +7°C° 1.2 mm 8 mps 741 mmHg 90%
12:00 +8°C° 2.6 mm 7 mps 740 mmHg 91%
13:00 +8°C° 2.6 mm 6 mps 739 mmHg 92%
14:00 +9°C° 2.6 mm 5 mps 738 mmHg 93%
15:00 +9°C° 2 mm 5 mps 737 mmHg 93%
16:00 +8°C° 2 mm 5 mps 737 mmHg 93%
17:00 +8°C° 2 mm 4 mps 737 mmHg 93%
18:00 +8°C° 0.5 mm 5 mps 737 mmHg 93%
19:00 +8°C° 0.5 mm 5 mps 737 mmHg 92%
20:00 +7°C° 0.5 mm 5 mps 738 mmHg 91%
21:00 +7°C° 0.4 mm 5 mps 739 mmHg 91%
22:00 +7°C° 0.4 mm 5 mps 739 mmHg 91%
23:00 +7°C° 0.4 mm 6 mps 740 mmHg 91%

21 April, Wednesday

Time Temperature Precipitation Wind Pressure Humidity
00:00 +5°C° 0 mm 6 mps 741 mmHg 90%
01:00 +5°C° 0 mm 6 mps 742 mmHg 89%
02:00 +4°C° 0 mm 7 mps 743 mmHg 88%
03:00 +4°C° 0 mm 6 mps 744 mmHg 88%
04:00 +3°C° 0 mm 6 mps 745 mmHg 88%
05:00 +2°C° 0 mm 6 mps 746 mmHg 88%
06:00 +3°C° 0 mm 6 mps 747 mmHg 82%
07:00 +4°C° 0 mm 6 mps 748 mmHg 77%
08:00 +4°C° 0 mm 6 mps 748 mmHg 71%
09:00 +5°C° 0 mm 6 mps 749 mmHg 68%
10:00 +5°C° 0 mm 6 mps 750 mmHg 66%
11:00 +7°C° 0 mm 6 mps 750 mmHg 63%
12:00 +7°C° 0 mm 6 mps 750 mmHg 61%
13:00 +8°C° 0 mm 6 mps 751 mmHg 59%
14:00 +9°C° 0 mm 6 mps 751 mmHg 57%
15:00 +9°C° 0 mm 5 mps 751 mmHg 58%
16:00 +10°C° 0 mm 4 mps 752 mmHg 59%
17:00 +10°C° 0 mm 3 mps 752 mmHg 60%
18:00 +9°C° 0 mm 3 mps 752 mmHg 65%
19:00 +8°C° 0 mm 2 mps 753 mmHg 70%
20:00 +8°C° 0 mm 2 mps 753 mmHg 74%
21:00 +8°C° 0 mm 2 mps 754 mmHg 74%
22:00 +8°C° 0 mm 2 mps 754 mmHg 74%
23:00 +8°C° 0 mm 2 mps 754 mmHg 74%

22 April, Thursday

Time Temperature Precipitation Wind Pressure Humidity
00:00 +8°C° 0 mm 2 mps 754 mmHg 74%
01:00 +8°C° 0 mm 2 mps 754 mmHg 75%
02:00 +8°C° 0 mm 2 mps 754 mmHg 76%
03:00 +8°C° 0 mm 2 mps 754 mmHg 79%
04:00 +7°C° 0 mm 2 mps 755 mmHg 82%
05:00 +7°C° 0 mm 2 mps 755 mmHg 85%
06:00 +8°C° 0 mm 3 mps 755 mmHg 81%
07:00 +10°C° 0 mm 3 mps 755 mmHg 77%
08:00 +11°C° 0 mm 4 mps 756 mmHg 73%
09:00 +12°C° 0.2 mm 4 mps 756 mmHg 68%
10:00 +13°C° 0.2 mm 4 mps 756 mmHg 63%
11:00 +14°C° 0.2 mm 4 mps 756 mmHg 58%
12:00 +14°C° 0.5 mm 4 mps 756 mmHg 56%
13:00 +15°C° 0.5 mm 4 mps 755 mmHg 55%
14:00 +15°C° 0.5 mm 4 mps 755 mmHg 54%
15:00 +15°C° 0.2 mm 4 mps 755 mmHg 56%
16:00 +14°C° 0.2 mm 3 mps 755 mmHg 59%
17:00 +14°C° 0.2 mm 3 mps 755 mmHg 62%
18:00 +13°C° 0.1 mm 3 mps 756 mmHg 66%
19:00 +12°C° 0.1 mm 3 mps 756 mmHg 70%
20:00 +11°C° 0.1 mm 3 mps 756 mmHg 74%
21:00 +10°C° 0 mm 3 mps 756 mmHg 78%
22:00 +10°C° 0 mm 3 mps 756 mmHg 81%
23:00 +9°C° 0 mm 3 mps 756 mmHg 84%

23 April, Friday

Time Temperature Precipitation Wind Pressure Humidity
00:00 +9°C° 0 mm 3 mps 756 mmHg 86%
01:00 +8°C° 0 mm 3 mps 756 mmHg 87%
02:00 +8°C° 0 mm 2 mps 756 mmHg 89%
03:00 +8°C° 0 mm 2 mps 756 mmHg 90%
04:00 +7°C° 0 mm 2 mps 756 mmHg 90%
05:00 +7°C° 0 mm 2 mps 756 mmHg 91%
06:00 +9°C° 0 mm 3 mps 756 mmHg 84%
07:00 +11°C° 0 mm 3 mps 756 mmHg 77%
08:00 +12°C° 0 mm 4 mps 756 mmHg 70%
09:00 +13°C° 0 mm 4 mps 756 mmHg 64%
10:00 +15°C° 0 mm 4 mps 756 mmHg 58%
11:00 +17°C° 0 mm 4 mps 756 mmHg 52%
12:00 +17°C° 0 mm 4 mps 756 mmHg 50%
13:00 +17°C° 0 mm 4 mps 755 mmHg 47%
14:00 +18°C° 0 mm 4 mps 755 mmHg 44%
15:00 +17°C° 0 mm 4 mps 755 mmHg 49%
16:00 +16°C° 0 mm 3 mps 755 mmHg 55%
17:00 +16°C° 0 mm 3 mps 755 mmHg 60%
18:00 +14°C° 0 mm 3 mps 755 mmHg 60%
19:00 +14°C° 0 mm 3 mps 755 mmHg 60%
20:00 +13°C° 0 mm 3 mps 755 mmHg 60%
21:00 +13°C° 0 mm 3 mps 754 mmHg 59%
22:00 +13°C° 0 mm 3 mps 754 mmHg 58%
23:00 +13°C° 0 mm 3 mps 754 mmHg 57%
Show more